Change the Weather History Date:

Thursday, October 17, 2013

  Actual Average Record
Temperature  
Mean Temperature 56 °F -  
Max Temperature 62 °F 52 °F 64 °F (2001)
Min Temperature 50 °F 40 °F 28 °F (2010)
Degree Days  
Heating Degree Days 9    
Growing Degree Days 6 (Base 50)    
Moisture  
Dew Point 51 °F    
Average Humidity 86    
Maximum Humidity 100    
Minimum Humidity 68    
Precipitation  
Precipitation 0.00 in 0.07 in - ()
Sea Level Pressure  
Sea Level Pressure 29.88 in    
Wind  
Wind Speed 9 mph ()    
Max Wind Speed 16 mph    
Max Gust Speed -    
Visibility 6.0 miles    
Events Rain    
Averages and records for this station are not official NWS values.
T = Trace of Precipitation, MM = Missing Value Source: Averaged Metar Reports

Daily Weather History Graph

Daily Weather History Graph

Search for Another Location

Airport or City:

Trip Planner

Search our weather history database for the weather conditions in past years. The results will help you decide how hot, cold, wet, or windy it might be!

Date:

Astronomy

Oct. 17, 2013 Rise Set
Actual Time 7:36 AM BST 6:07 PM BST
Civil Twilight 7:01 AM BST 6:42 PM BST
Nautical Twilight 6:21 AM BST 7:21 PM BST
Astronomical Twilight 5:42 AM BST 8:01 PM BST
Moon 5:19 PM BST (10/17) 5:42 AM BST (10/17)
Length of Visible Light 11h 40m
Length of Day
10h 31m
Waxing Gibbous, 97% of the Moon is Illuminated
Oct 17
Waxing Gibbous
Oct 19
Full
Oct 27
Last Quarter
Nov 3
New
Nov 10
First Quarter

Hourly Weather History & Observations

Time (BST) Temp. Dew Point Humidity Pressure Visibility Wind Dir Wind Speed Gust Speed Precip Events Conditions
12:20 AM 53.6 °F 48.2 °F 82% 29.71 in - SW 15.0 mph - N/A   Clear
12:50 AM 53.6 °F 48.2 °F 82% 29.74 in - WSW 13.8 mph - N/A   Clear
1:20 AM 53.6 °F 50.0 °F 88% 29.74 in 6.2 mi WSW 16.1 mph - N/A   Unknown
1:50 AM 53.6 °F 50.0 °F 88% 29.74 in 6.2 mi WSW 13.8 mph - N/A   Unknown
2:20 AM 53.6 °F 48.2 °F 82% 29.77 in 6.2 mi WSW 12.7 mph - N/A   Unknown
2:50 AM 53.6 °F 48.2 °F 82% 29.77 in 6.2 mi WSW 16.1 mph - N/A   Unknown
3:20 AM 53.6 °F 48.2 °F 82% 29.77 in - WSW 13.8 mph - N/A   Clear
3:50 AM 53.6 °F 48.2 °F 82% 29.77 in - WSW 11.5 mph - N/A   Clear
4:20 AM 53.6 °F 48.2 °F 82% 29.77 in - WSW 11.5 mph - N/A   Clear
4:50 AM 51.8 °F 48.2 °F 88% 29.77 in - WSW 10.4 mph - N/A   Clear
5:20 AM 51.8 °F 48.2 °F 88% 29.80 in - WSW 6.9 mph - N/A   Clear
5:50 AM 50.0 °F 48.2 °F 94% 29.80 in - West 5.8 mph - N/A   Clear
6:20 AM 50.0 °F 48.2 °F 94% 29.83 in - WSW 5.8 mph - N/A   Clear
6:50 AM 51.8 °F 50.0 °F 94% 29.83 in 6.2 mi WSW 8.1 mph - N/A   Mostly Cloudy
7:20 AM 51.8 °F 50.0 °F 94% 29.83 in 2.8 mi West 6.9 mph - N/A   Mostly Cloudy
7:50 AM 51.8 °F 50.0 °F 94% 29.83 in 6.2 mi SW 6.9 mph - N/A   Mostly Cloudy
8:20 AM 51.8 °F 50.0 °F 94% 29.86 in 6.2 mi SSW 8.1 mph - N/A   Mostly Cloudy
8:50 AM 53.6 °F 50.0 °F 88% 29.86 in 6.2 mi SW 9.2 mph - N/A   Scattered Clouds
9:20 AM 53.6 °F 51.8 °F 94% 29.86 in 6.2 mi SW 9.2 mph - N/A   Scattered Clouds
9:50 AM 55.4 °F 51.8 °F 88% 29.86 in 6.2 mi WSW 9.2 mph - N/A   Partly Cloudy
10:20 AM 55.4 °F 51.8 °F 88% 29.89 in 6.2 mi SW 10.4 mph - N/A   Scattered Clouds
10:50 AM 57.2 °F 51.8 °F 82% 29.89 in 6.2 mi WSW 10.4 mph - N/A   Partly Cloudy
11:20 AM 57.2 °F 51.8 °F 82% 29.89 in 6.2 mi WSW 8.1 mph - N/A   Partly Cloudy
11:50 AM 59.0 °F 51.8 °F 77% 29.89 in 6.2 mi SW 10.4 mph - N/A   Scattered Clouds
12:20 PM 59.0 °F 51.8 °F 77% 29.92 in 6.2 mi WSW 9.2 mph - N/A   Mostly Cloudy
12:50 PM 59.0 °F 53.6 °F 82% 29.92 in 6.2 mi SW 9.2 mph - N/A   Mostly Cloudy
1:20 PM 59.0 °F 53.6 °F 82% 29.92 in 3.7 mi SW 11.5 mph - N/A Rain Light Rain
1:50 PM 59.0 °F 55.4 °F 88% 29.92 in 6.2 mi WSW 5.8 mph - N/A   Partly Cloudy
2:20 PM 59.0 °F 55.4 °F 88% 29.92 in 6.2 mi WSW 6.9 mph - N/A   Partly Cloudy
2:50 PM 62.6 °F 53.6 °F 72% 29.92 in 6.2 mi WSW 9.2 mph - N/A   Partly Cloudy
3:20 PM 62.6 °F 51.8 °F 68% 29.92 in 6.2 mi WSW 11.5 mph - N/A   Partly Cloudy
3:50 PM 60.8 °F 51.8 °F 72% 29.92 in 6.2 mi SW 8.1 mph - N/A   Partly Cloudy
4:20 PM 60.8 °F 53.6 °F 77% 29.92 in 6.2 mi WSW 6.9 mph - N/A   Partly Cloudy
4:50 PM 60.8 °F 51.8 °F 72% 29.92 in 6.2 mi WSW 5.8 mph - N/A   Partly Cloudy
5:20 PM 59.0 °F 53.6 °F 82% 29.92 in 6.2 mi WSW 4.6 mph - N/A   Partly Cloudy
5:50 PM 59.0 °F 51.8 °F 77% 29.92 in 6.2 mi WSW 4.6 mph - N/A   Partly Cloudy
6:20 PM 59.0 °F 51.8 °F 77% 29.95 in - Variable 3.5 mph - N/A   Clear
6:50 PM 57.2 °F 51.8 °F 82% 29.95 in 6.2 mi SSW 5.8 mph - N/A   Scattered Clouds
7:20 PM 55.4 °F 51.8 °F 88% 29.95 in 6.2 mi South 4.6 mph - N/A   Scattered Clouds
7:50 PM 55.4 °F 51.8 °F 88% 29.95 in 6.2 mi Variable 3.5 mph - N/A   Scattered Clouds
8:20 PM 55.4 °F 51.8 °F 88% 29.95 in 6.2 mi Variable 3.5 mph - N/A   Partly Cloudy
8:50 PM 51.8 °F 51.8 °F 100% 29.98 in 6.2 mi SSW 5.8 mph - N/A   Scattered Clouds
9:20 PM 55.4 °F 51.8 °F 88% 29.98 in 6.2 mi SW 4.6 mph - N/A   Scattered Clouds
9:50 PM 55.4 °F 53.6 °F 94% 29.98 in - SSW 4.6 mph - N/A   Clear
10:20 PM 55.4 °F 51.8 °F 88% 29.98 in - SSW 4.6 mph - N/A   Clear
10:50 PM 53.6 °F 51.8 °F 94% 29.98 in - South 8.1 mph - N/A   Clear
11:20 PM 53.6 °F 51.8 °F 94% 29.98 in - SSW 5.8 mph - N/A   Clear
11:50 PM 51.8 °F 51.8 °F 100% 29.98 in - SSW 4.6 mph - N/A   Clear